Date String (YYYY-MM-DD hh:mm:ss) UTC,Instrument flags,Ambient pressure (hPa),Sample flow (lpm),Bypass flow (lpm),Sample temperature (°C),Ambient temperature (°C),ASC tube jacket temperature (°C),LED temperature (°C),Box temperature (°C),Sample RH (%),Span deviation,Mass concentration (μg/m³),Mass concentration (μg/m³),Mass concentration (μg/m³)
DateTimeUTC,F1_M11,P_M11,Q1_M11,Q2_M11,T1_M11,T2_M11,T3_M11,T4_M11,T5_M11,U1_M11,ZSPAN_M11,X0_M11,X2_M11,X1_M11
2021-09-17 22:00:00,,0832.7,5.00,0.00,29.5,25.9,00.0,38.7,30.8,20.2,0001.1,0021.81,0009.89,0008.20
2021-09-17 22:01:00,,0832.8,4.99,0.00,29.4,26.4,00.0,38.7,30.9,20.4,0000.8,0021.71,0009.88,0008.19
2021-09-17 22:02:00,,0832.7,5.00,0.00,29.4,26.9,00.0,38.6,31.0,20.4,0000.9,0022.48,0009.91,0008.18
2021-09-17 22:03:00,,0832.7,5.00,0.00,29.4,27.3,00.0,38.6,31.1,20.5,0001.0,0023.58,0009.97,0008.17
2021-09-17 22:04:00,,0832.8,4.99,0.00,29.5,27.6,00.0,38.6,31.2,20.8,0001.2,0023.51,0009.90,0008.12
2021-09-17 22:05:00,,0832.7,5.01,0.00,29.5,27.9,00.0,38.6,31.3,20.8,0001.3,0022.56,0009.92,0008.11
2021-09-17 22:06:00,,0832.7,4.99,0.00,29.5,28.1,00.0,38.6,31.3,20.6,0001.2,0021.93,0009.94,0008.12
2021-09-17 22:07:00,,0832.7,5.00,0.00,29.5,28.2,00.0,38.6,31.4,20.6,0001.1,0021.72,0009.94,0008.11
2021-09-17 22:08:00,,0832.7,5.01,0.00,29.6,28.4,00.0,38.6,31.4,20.6,0000.8,0022.44,0009.96,0008.08
2021-09-17 22:09:00,,0832.7,5.00,0.00,29.6,28.5,00.0,38.6,31.4,20.5,0000.9,0021.15,0009.86,0008.01
2021-09-17 22:10:00,,0832.8,4.99,0.00,29.6,28.6,00.0,38.6,31.5,20.6,0001.2,0021.28,0009.81,0007.98
2021-09-17 22:11:00,,0832.8,5.01,0.00,29.7,28.7,00.0,38.6,31.5,20.6,0001.5,0022.28,0009.76,0007.95
2021-09-17 22:12:00,,0832.8,5.02,0.00,29.7,28.8,00.0,38.7,31.6,20.3,0001.5,0022.52,0009.83,0007.96
2021-09-17 22:13:00,,0832.8,4.99,0.00,29.7,28.8,00.0,38.7,31.6,20.0,0001.7,0021.90,0009.88,0008.01
2021-09-17 22:14:00,,0832.8,5.01,0.00,29.8,28.9,00.0,38.7,31.6,20.0,0001.9,0021.16,0009.94,0008.04
2021-09-17 22:15:00,,0832.7,5.00,0.00,29.8,29.0,00.0,38.8,31.7,20.1,0001.2,0021.47,0010.03,0008.10
2021-09-17 22:16:00,,0832.7,5.00,0.00,29.8,29.0,00.0,38.8,31.7,19.9,0001.2,0021.84,0010.06,0008.15
2021-09-17 22:17:00,,0832.6,5.02,0.00,29.8,29.1,00.0,38.8,31.7,20.1,0001.7,0022.31,0010.11,0008.16
2021-09-17 22:18:00,,0832.7,4.99,0.00,29.9,29.1,00.0,38.8,31.8,20.2,0001.7,0022.57,0010.09,0008.18
2021-09-17 22:19:00,,0832.7,5.00,0.00,29.9,28.9,00.0,38.8,31.7,19.9,0002.0,0022.74,0010.06,0008.22
2021-09-17 22:20:00,,0832.7,5.00,0.00,29.8,27.1,00.0,38.8,31.2,20.3,0002.1,0023.20,0010.15,0008.26
2021-09-17 22:21:00,,0832.6,5.01,0.00,29.7,26.5,00.0,38.8,31.0,20.5,0001.9,0023.00,0010.20,0008.28
2021-09-17 22:22:00,,0832.6,4.99,0.00,29.6,26.8,00.0,38.8,31.1,20.5,0001.8,0022.87,0010.25,0008.34
2021-09-17 22:23:00,,0832.6,5.00,0.00,29.6,27.2,00.0,38.7,31.2,20.5,0001.9,0023.52,0010.29,0008.40
2021-09-17 22:24:00,,0832.6,5.01,0.00,29.6,27.5,00.0,38.7,31.3,20.3,0001.7,0024.24,0010.34,0008.45
2021-09-17 22:25:00,,0832.6,4.99,0.00,29.6,27.8,00.0,38.7,31.3,20.3,0001.9,0024.67,0010.38,0008.50
2021-09-17 22:26:00,,0832.6,5.00,0.00,29.6,28.1,00.0,38.7,31.4,20.3,0002.1,0025.03,0010.34,0008.54
2021-09-17 22:27:00,,0832.6,5.01,0.00,29.7,28.3,00.0,38.7,31.4,20.3,0001.8,0024.46,0010.45,0008.61
2021-09-17 22:28:00,,0832.6,4.99,0.00,29.7,28.4,00.0,38.7,31.5,20.5,0001.3,0024.72,0010.50,0008.67
2021-09-17 22:29:00,,0832.6,5.02,0.00,29.7,28.6,00.0,38.7,31.5,20.2,0001.2,0025.75,0010.66,0008.81
2021-09-17 22:30:00,,0832.6,5.00,0.00,29.7,28.7,00.0,38.7,31.5,20.3,0001.2,0027.31,0010.81,0008.93
2021-09-17 22:31:00,,0832.6,4.99,0.00,29.7,28.8,00.0,38.8,31.5,20.3,0001.1,0027.80,0010.88,0009.02
2021-09-17 22:32:00,,0832.6,5.01,0.00,29.8,28.8,00.0,38.8,31.6,20.3,0000.9,0028.00,0010.98,0009.12
2021-09-17 22:33:00,,0832.5,4.99,0.00,29.8,28.9,00.0,38.8,31.7,20.3,0000.3,0027.74,0011.06,0009.22
2021-09-17 22:34:00,,0832.5,5.00,0.00,29.8,29.0,00.0,38.8,31.7,20.2,0000.1,0028.61,0011.19,0009.28
2021-09-17 22:35:00,,0832.6,5.00,0.00,29.8,29.0,00.0,38.8,31.7,19.9,0000.1,0029.00,0011.23,0009.34
2021-09-17 22:36:00,,0832.6,5.01,0.00,29.8,28.0,00.0,38.8,31.4,20.0,-000.3,0029.15,0011.32,0009.40
2021-09-17 22:37:00,,0832.5,4.99,0.00,29.7,26.5,00.0,38.8,31.0,20.2,-000.3,0030.22,0011.45,0009.49
2021-09-17 22:38:00,,0832.5,5.01,0.00,29.6,26.6,00.0,38.8,31.0,20.4,0000.2,0031.08,0011.48,0009.53
2021-09-17 22:39:00,,0832.5,4.99,0.00,29.6,26.9,00.0,38.7,31.1,20.4,0000.4,0031.00,0011.54,0009.55
2021-09-17 22:40:00,,0832.4,5.01,0.00,29.5,27.3,00.0,38.7,31.2,20.4,0000.7,0030.60,0011.47,0009.53
2021-09-17 22:41:00,,0832.5,4.99,0.00,29.6,27.6,00.0,38.7,31.3,20.5,0000.8,0030.45,0011.49,0009.52
2021-09-17 22:42:00,,0832.5,5.01,0.00,29.6,27.9,00.0,38.7,31.4,20.5,0000.7,0031.11,0011.50,0009.51
2021-09-17 22:43:00,,0832.5,5.00,0.00,29.6,28.1,00.0,38.7,31.4,20.5,0001.0,0032.04,0011.53,0009.50
2021-09-17 22:44:00,,0832.5,4.99,0.00,29.7,28.3,00.0,38.7,31.4,20.6,0001.5,0032.32,0011.56,0009.47
2021-09-17 22:45:00,,0832.5,5.00,0.00,29.7,28.5,00.0,38.7,31.5,20.5,0001.7,0031.10,0011.55,0009.43
2021-09-17 22:46:00,,0832.5,4.99,0.00,29.7,28.6,00.0,38.7,31.5,20.4,0001.8,0031.33,0011.52,0009.39
2021-09-17 22:47:00,,0832.5,5.00,0.00,29.7,28.7,00.0,38.7,31.6,20.5,0001.4,0031.92,0011.45,0009.36
2021-09-17 22:48:00,,0832.4,5.01,0.00,29.8,28.8,00.0,38.7,31.6,20.3,0001.3,0031.34,0011.33,0009.30
2021-09-17 22:49:00,,0832.4,4.99,0.00,29.8,28.9,00.0,38.8,31.6,19.8,0001.3,0032.01,0011.35,0009.32
2021-09-17 22:50:00,,0832.4,5.01,0.00,29.8,29.0,00.0,38.8,31.7,19.8,0001.2,0031.17,0011.37,0009.36
2021-09-17 22:51:00,,0832.4,5.00,0.00,29.8,29.0,00.0,38.8,31.7,19.8,0001.2,0030.62,0011.40,0009.40
2021-09-17 22:52:00,,0832.4,4.99,0.00,29.9,28.9,00.0,38.8,31.6,19.8,0001.2,0029.59,0011.46,0009.46
2021-09-17 22:53:00,,0832.4,5.00,0.00,29.8,27.2,00.0,38.8,31.2,20.2,0001.3,0028.88,0011.43,0009.49
2021-09-17 22:54:00,,0832.4,5.01,0.00,29.7,26.5,00.0,38.8,31.0,20.2,0001.4,0028.47,0011.45,0009.48
2021-09-17 22:55:00,,0832.4,5.00,0.00,29.6,26.8,00.0,38.7,31.1,20.3,0001.6,0028.65,0011.41,0009.50
2021-09-17 22:56:00,,0832.3,4.99,0.00,29.5,27.2,00.0,38.7,31.2,20.5,0001.5,0028.66,0011.38,0009.50
2021-09-17 22:57:00,,0832.3,5.00,0.00,29.6,27.5,00.0,38.7,31.3,20.5,0001.6,0027.90,0011.36,0009.45
2021-09-17 22:58:00,,0832.3,4.99,0.00,29.6,27.8,00.0,38.7,31.3,20.3,0001.9,0028.26,0011.40,0009.39
2021-09-17 22:59:00,,0832.3,5.01,0.00,29.6,28.1,00.0,38.7,31.4,20.3,0002.1,0027.33,0011.43,0009.35
